Location: Nairn
(57.5833°N, 3.8667°W)
Time: 23:10:19
(UTC+00:00)

S-56A Canister/Altair - Pass Details

Date: 07 October 2022
Orbit: 638 x 2494 km, 38.9° (Epoch: 09 December)

Event Time Altitude Azimuth Distance (km) Brightness Sun altitude
Exits shadow 05:25:59 - 242° (WSW) 3,723 10.5 -9.6°
Reaches altitude 10° 05:28:37 10° 225° (SW) 3,303 10.3 -9.3°
Maximum altitude 05:29:24 10° 220° (SW) 3,223 10.3 -9.2°
Drops below altitude 10° 05:30:10 10° 214° (SW) 3,169 10.3 -9.1°
Sets 05:36:04 0° 172° (S) 3,620 11.1 -8.3°
